This is the latest recevied weather packets stored in our database for station/object N3FWE. If no packets are shown the sender has not sent any weather packets the latest 10 day(s).
| Time | Temp. | Humidity | Pressure | Rain* | Wind** | Luminosity | Snow |
|---|---|---|---|---|---|---|---|
| 1787759412 | 25.56° C | 67% | 1020.4 hPa | 0 mm | - | - | - |
| 1787758812 | 25° C | 65% | 1020.5 hPa | 0 mm | - | - | - |
| 1787758213 | 25° C | 65% | 1020.5 hPa | 0 mm | - | - | - |
| 1787757613 | 25° C | 65% | 1020.6 hPa | 0 mm | - | - | - |
| 1787757013 | 24.44° C | 68% | 1020.7 hPa | 0 mm | - | - | - |
| 1787756413 | 24.44° C | 67% | 1020.6 hPa | 0 mm | - | - | - |
| 1787755813 | 25° C | 68% | 1020.7 hPa | 0 mm | - | - | - |
| 1787755212 | 24.44° C | 66% | 1020.7 hPa | 0 mm | - | - | - |
| 1787754613 | 24.44° C | 69% | 1020.7 hPa | 0 mm | - | - | - |
| 1787754016 | 23.89° C | 69% | 1020.8 hPa | 0 mm | - | - | - |
| 1787753412 | 23.89° C | 69% | 1020.9 hPa | 0 mm | - | - | - |
| 1787752813 | 23.33° C | 72% | 1020.9 hPa | 0 mm | - | - | - |
| 1787752213 | 22.22° C | 75% | 1020.9 hPa | 0 mm | - | - | - |
| 1787751613 | 21.11° C | 78% | 1020.8 hPa | 0 mm | - | - | - |
| 1787751012 | 20° C | 85% | 1020.9 hPa | 0 mm | - | - | - |
| 1787750412 | 19.44° C | 90% | 1020.7 hPa | 0 mm | - | - | - |
| 1787749812 | 18.33° C | 93% | 1020.8 hPa | 0 mm | - | - | - |
| 1787749213 | 18.33° C | 95% | 1020.8 hPa | 0 mm | - | - | - |
| 1787748613 | 17.78° C | 95% | 1020.8 hPa | 0 mm | - | - | - |
| 1787748012 | 17.22° C | 95% | 1020.9 hPa | 0 mm | - | - | - |
| 1787747413 | 16.67° C | 95% | 1020.8 hPa | 0 mm | - | - | - |
| 1787746812 | 16.67° C | 95% | 1021 hPa | 0 mm | - | - | - |
| 1787746212 | 16.11° C | 95% | 1021 hPa | 0 mm | - | - | - |
| 1787745613 | 15.56° C | 95% | 1021.1 hPa | 0 mm | - | - | - |
| 1787745012 | 15° C | 94% | 1021.1 hPa | 0 mm | - | - | - |
* Rain latest hour (hover to see other rain measurements)
** Current wind speed in m/s (hover to see current wind gust speed)